Hourly Weather Rio Branco

Today, 21 October, Wednesday

Time Temperature Precipitation Wind Pressure Humidity
00:00 +23°C° 0 mm 0 mps 745 mmHg 95%
01:00 +24°C° 0 mm 1 mps 744 mmHg 95%
02:00 +24°C° 0 mm 1 mps 744 mmHg 95%
03:00 +22°C° 0 mm 0 mps 744 mmHg 94%
04:00 +22°C° 0 mm 0 mps 745 mmHg 94%
05:00 +23°C° 0 mm 0 mps 745 mmHg 91%
06:00 +24°C° 0 mm 0 mps 746 mmHg 89%
07:00 +25°C° 0 mm 0 mps 747 mmHg 86%
08:00 +26°C° 0 mm 0 mps 747 mmHg 80%
09:00 +27°C° 0 mm 0 mps 747 mmHg 73%
10:00 +29°C° 0 mm 0 mps 747 mmHg 67%
11:00 +30°C° 0 mm 0 mps 746 mmHg 63%
12:00 +31°C° 0 mm 0 mps 745 mmHg 58%
13:00 +32°C° 0 mm 0 mps 744 mmHg 54%
14:00 +32°C° 0 mm 0 mps 743 mmHg 52%
15:00 +32°C° 0 mm 0 mps 743 mmHg 50%
16:00 +33°C° 0 mm 0 mps 742 mmHg 47%
17:00 +32°C° 0.3 mm 1 mps 742 mmHg 59%
18:00 +29°C° 0.3 mm 1 mps 743 mmHg 71%
19:00 +27°C° 0.3 mm 1 mps 744 mmHg 83%
20:00 +26°C° 0.6 mm 1 mps 744 mmHg 86%
21:00 +26°C° 0.6 mm 1 mps 745 mmHg 88%
22:00 +25°C° 0.6 mm 1 mps 745 mmHg 91%
23:00 +25°C° 0.3 mm 1 mps 745 mmHg 92%

Tomorrow, 22 October, Thursday

Time Temperature Precipitation Wind Pressure Humidity
00:00 +25°C° 0.3 mm 1 mps 745 mmHg 94%
01:00 +24°C° 0.3 mm 1 mps 744 mmHg 95%
02:00 +24°C° 0.1 mm 1 mps 744 mmHg 96%
03:00 +22°C° 0.1 mm 0 mps 744 mmHg 96%
04:00 +22°C° 0.1 mm 0 mps 745 mmHg 97%
05:00 +23°C° 0.4 mm 0 mps 745 mmHg 94%
06:00 +24°C° 0.4 mm 0 mps 746 mmHg 91%
07:00 +25°C° 0.4 mm 0 mps 746 mmHg 88%
08:00 +29°C° 0 mm 0 mps 747 mmHg 74%
09:00 +32°C° 0 mm 0 mps 747 mmHg 59%
10:00 +36°C° 0 mm 0 mps 747 mmHg 44%
11:00 +36°C° 0 mm 0 mps 746 mmHg 42%
12:00 +40°C° 0 mm 1 mps 745 mmHg 40%
13:00 +40°C° 0 mm 1 mps 744 mmHg 37%
14:00 +39°C° 0 mm 1 mps 743 mmHg 39%
15:00 +37°C° 0 mm 1 mps 742 mmHg 41%
16:00 +36°C° 0 mm 1 mps 741 mmHg 43%
17:00 +34°C° 0 mm 1 mps 742 mmHg 48%
18:00 +32°C° 0 mm 1 mps 742 mmHg 53%
19:00 +30°C° 0 mm 1 mps 743 mmHg 57%
20:00 +30°C° 0 mm 1 mps 743 mmHg 60%
21:00 +29°C° 0 mm 1 mps 744 mmHg 63%
22:00 +29°C° 0 mm 1 mps 744 mmHg 66%
23:00 +28°C° 0.1 mm 1 mps 744 mmHg 69%

Day after tomorrow, 23 October, Friday

Time Temperature Precipitation Wind Pressure Humidity
00:00 +27°C° 0.1 mm 1 mps 744 mmHg 72%
01:00 +27°C° 0.1 mm 1 mps 743 mmHg 76%
02:00 +26°C° 0 mm 1 mps 743 mmHg 77%
03:00 +24°C° 0 mm 0 mps 743 mmHg 79%
04:00 +23°C° 0 mm 0 mps 743 mmHg 80%
05:00 +25°C° 0 mm 0 mps 744 mmHg 75%
06:00 +28°C° 0 mm 1 mps 745 mmHg 69%
07:00 +30°C° 0 mm 1 mps 745 mmHg 63%
08:00 +32°C° 0.1 mm 1 mps 745 mmHg 56%
09:00 +35°C° 0.1 mm 1 mps 745 mmHg 48%
10:00 +38°C° 0.1 mm 2 mps 745 mmHg 41%
11:00 +39°C° 0 mm 2 mps 744 mmHg 38%
12:00 +40°C° 0 mm 2 mps 743 mmHg 35%
13:00 +41°C° 0 mm 2 mps 742 mmHg 31%
14:00 +40°C° 0 mm 2 mps 741 mmHg 34%
15:00 +39°C° 0 mm 2 mps 740 mmHg 36%
16:00 +39°C° 0 mm 2 mps 740 mmHg 38%
17:00 +35°C° 0 mm 1 mps 740 mmHg 45%
18:00 +33°C° 0 mm 1 mps 741 mmHg 51%
19:00 +31°C° 0 mm 1 mps 741 mmHg 57%
20:00 +30°C° 0.1 mm 1 mps 742 mmHg 61%
21:00 +30°C° 0.1 mm 1 mps 742 mmHg 65%
22:00 +29°C° 0.1 mm 2 mps 742 mmHg 69%
23:00 +28°C° 0 mm 2 mps 742 mmHg 71%

24 October, Saturday

Time Temperature Precipitation Wind Pressure Humidity
00:00 +28°C° 0 mm 2 mps 742 mmHg 72%
01:00 +28°C° 0 mm 2 mps 742 mmHg 74%
02:00 +27°C° 0 mm 2 mps 742 mmHg 77%
03:00 +27°C° 0 mm 1 mps 742 mmHg 80%
04:00 +26°C° 0 mm 1 mps 742 mmHg 83%
05:00 +27°C° 0 mm 1 mps 743 mmHg 79%
06:00 +28°C° 0 mm 2 mps 743 mmHg 75%
07:00 +30°C° 0 mm 2 mps 744 mmHg 70%
08:00 +32°C° 0 mm 2 mps 744 mmHg 61%
09:00 +36°C° 0 mm 2 mps 744 mmHg 51%
10:00 +39°C° 0 mm 3 mps 744 mmHg 41%
11:00 +40°C° 0 mm 2 mps 743 mmHg 38%
12:00 +41°C° 0 mm 2 mps 742 mmHg 34%
13:00 +41°C° 0 mm 2 mps 741 mmHg 31%
14:00 +40°C° 0 mm 2 mps 740 mmHg 34%
15:00 +39°C° 0 mm 2 mps 740 mmHg 37%
16:00 +38°C° 0 mm 2 mps 739 mmHg 40%
17:00 +35°C° 0.2 mm 2 mps 739 mmHg 49%
18:00 +32°C° 0.2 mm 2 mps 740 mmHg 58%
19:00 +29°C° 0.2 mm 2 mps 740 mmHg 68%
20:00 +29°C° 0 mm 1 mps 740 mmHg 72%
21:00 +28°C° 0 mm 1 mps 741 mmHg 76%
22:00 +27°C° 0 mm 1 mps 741 mmHg 81%
23:00 +27°C° 0 mm 1 mps 741 mmHg 82%

25 October, Sunday

Time Temperature Precipitation Wind Pressure Humidity
00:00 +27°C° 0 mm 1 mps 741 mmHg 82%
01:00 +27°C° 0 mm 1 mps 741 mmHg 83%
02:00 +27°C° 0.1 mm 1 mps 741 mmHg 84%
03:00 +26°C° 0.1 mm 1 mps 741 mmHg 84%
04:00 +26°C° 0.1 mm 1 mps 741 mmHg 84%
05:00 +27°C° 0 mm 1 mps 742 mmHg 78%
06:00 +28°C° 0 mm 2 mps 742 mmHg 72%
07:00 +29°C° 0 mm 2 mps 743 mmHg 66%
08:00 +32°C° 0 mm 2 mps 743 mmHg 56%
09:00 +36°C° 0 mm 2 mps 743 mmHg 47%
10:00 +39°C° 0 mm 3 mps 743 mmHg 37%
11:00 +40°C° 0 mm 2 mps 742 mmHg 35%
12:00 +40°C° 0 mm 2 mps 741 mmHg 33%
13:00 +41°C° 0 mm 2 mps 740 mmHg 30%
14:00 +40°C° 0 mm 2 mps 740 mmHg 33%
15:00 +39°C° 0 mm 2 mps 739 mmHg 35%
16:00 +38°C° 0 mm 2 mps 739 mmHg 38%
17:00 +35°C° 0 mm 1 mps 739 mmHg 42%
18:00 +33°C° 0 mm 1 mps 740 mmHg 47%
19:00 +32°C° 0 mm 1 mps 740 mmHg 52%
20:00 +31°C° 0 mm 1 mps 740 mmHg 56%
21:00 +30°C° 0 mm 1 mps 741 mmHg 59%
22:00 +29°C° 0 mm 1 mps 741 mmHg 63%
23:00 +29°C° 0 mm 1 mps 741 mmHg 64%

26 October, Monday

Time Temperature Precipitation Wind Pressure Humidity
00:00 +29°C° 0 mm 2 mps 741 mmHg 66%
01:00 +28°C° 0 mm 2 mps 740 mmHg 67%
02:00 +28°C° 0 mm 2 mps 741 mmHg 70%
03:00 +27°C° 0 mm 1 mps 741 mmHg 73%
04:00 +27°C° 0 mm 1 mps 741 mmHg 77%
05:00 +28°C° 0 mm 2 mps 742 mmHg 73%
06:00 +29°C° 0 mm 2 mps 742 mmHg 69%
07:00 +30°C° 0 mm 2 mps 743 mmHg 66%
08:00 +34°C° 0 mm 3 mps 743 mmHg 57%
09:00 +37°C° 0 mm 3 mps 743 mmHg 48%
10:00 +39°C° 0 mm 3 mps 743 mmHg 39%
11:00 +40°C° 0 mm 3 mps 742 mmHg 37%
12:00 +42°C° 0 mm 3 mps 741 mmHg 34%
13:00 +41°C° 0 mm 2 mps 740 mmHg 32%
14:00 +40°C° 0 mm 2 mps 740 mmHg 34%
15:00 +40°C° 0 mm 2 mps 739 mmHg 36%
16:00 +39°C° 0 mm 2 mps 739 mmHg 38%
17:00 +36°C° 0.2 mm 2 mps 739 mmHg 49%
18:00 +32°C° 0.2 mm 1 mps 740 mmHg 60%
19:00 +27°C° 0.2 mm 0 mps 740 mmHg 71%
20:00 +27°C° 0.3 mm 0 mps 741 mmHg 74%
21:00 +26°C° 0.3 mm 0 mps 741 mmHg 78%
22:00 +26°C° 0.3 mm 0 mps 742 mmHg 81%
23:00 +25°C° 0.8 mm 0 mps 742 mmHg 86%

27 October, Tuesday

Time Temperature Precipitation Wind Pressure Humidity
00:00 +24°C° 0.8 mm 0 mps 741 mmHg 90%
01:00 +26°C° 0.8 mm 1 mps 741 mmHg 95%
02:00 +25°C° 0.2 mm 1 mps 741 mmHg 95%
03:00 +25°C° 0.2 mm 1 mps 741 mmHg 95%
04:00 +25°C° 0.2 mm 1 mps 741 mmHg 96%
05:00 +26°C° 0 mm 1 mps 742 mmHg 92%
06:00 +27°C° 0 mm 1 mps 743 mmHg 87%
07:00 +28°C° 0 mm 1 mps 743 mmHg 83%
08:00 +31°C° 0 mm 1 mps 743 mmHg 70%
09:00 +35°C° 0 mm 1 mps 743 mmHg 56%
10:00 +39°C° 0 mm 1 mps 743 mmHg 43%
11:00 +39°C° 0 mm 1 mps 742 mmHg 42%
12:00 +39°C° 0 mm 1 mps 741 mmHg 41%
13:00 +39°C° 0 mm 1 mps 740 mmHg 40%
14:00 +36°C° 0.7 mm 2 mps 740 mmHg 51%
15:00 +33°C° 0.7 mm 3 mps 739 mmHg 61%
16:00 +30°C° 0.7 mm 3 mps 739 mmHg 72%
17:00 +28°C° 1.5 mm 3 mps 740 mmHg 80%
18:00 +27°C° 1.5 mm 3 mps 740 mmHg 87%
19:00 +25°C° 1.5 mm 2 mps 741 mmHg 95%
20:00 +25°C° 0.1 mm 2 mps 741 mmHg 96%
21:00 +25°C° 0.1 mm 1 mps 741 mmHg 96%
22:00 +25°C° 0.1 mm 1 mps 741 mmHg 96%
23:00 +23°C° 0 mm 0 mps 741 mmHg 97%
Show more